STARLINK-5187 (54065 NORAD) Tracking and Keplerian Element Data

This shows tracking and keplerian element data for the satellite.

Feedback or suggestion? Click here.




ElementValue
Catalog54065
NameSTARLINK-5187
Epoch Orbit548
Epoch Day325.33334491
Epoch Year2022
RAAN352.6497
Inclination53.2171
Eccentricity0.0001355
Argument of Perigee26.6935
Mean Anonmoly165.6606
Mean Motion15.48225352
Decay Rate-0.01208201
L11 54065U 22136Q 22325.33334491 -.01208201 00000+0 -24788-1 0 9993
L22 54065 53.2171 352.6497 0001355 26.6935 165.6606 15.48225352 5486



Live tracking and technical data element details for STARLINK-5187 (NORAD 54065). STARLINK-5187 can be tracked NOW for your location showing map with azimuth and elevation plus other details from your city location.







IsCatalogInMostPopularTable: catalog: 54065, numindb: 1
Update: records affected: 1



GetName: 54065 STARLINK-5187

Hit Count: updated at: Fri, 09 Dec 2022 19:45:05 GMT